Theta_e
296 296 296 296 297 297 297 297 300 303 304 304 306 310 312 312 311 311 311 310 310 312 312 311 311 310 309 308 308 309 310 310 310 311 310 311 310 309 310 311 311 311 311 312 312 312 312 314 317 317 317 317 318 316 315 315 315 315 316 317 318 318 317 315 315 316 316 316 315 315 316 315 315 316 316 316 316 315 315 314 316 315 314 315 312 314 321
296 296 296 296 296 297 297 297 299 302 303 303 305 310 312 310 310 311 311 311 311 312 311 310 309 310 310 310 310 309 309 309 309 309 309 310 310 309 309 310 310 310 311 311 312 312 312 312 315 316 316 317 317 316 316 315 315 316 316 317 316 315 316 316 316 316 317 318 316 315 316 314 314 315 316 316 315 317 318 316 317 316 314 315 314 317 322
296 296 296 296 296 297 297 298 299 301 303 302 304 309 312 309 310 310 310 311 311 311 311 311 310 310 310 311 311 310 309 309 309 309 309 310 310 310 310 311 311 310 310 311 311 311 312 313 314 315 317 317 317 316 316 316 315 315 316 316 316 316 316 317 317 318 318 319 317 315 315 315 315 315 316 317 315 316 317 316 315 315 316 315 315 320 323
296 296 296 296 296 297 297 298 298 300 301 302 304 309 311 309 308 308 309 310 311 311 311 311 311 311 310 310 310 310 310 310 309 309 310 310 310 310 310 310 311 311 310 311 311 310 310 312 313 314 316 317 316 316 317 316 316 316 315 315 316 316 317 317 317 318 318 317 315 315 315 316 316 315 315 316 317 317 318 316 315 316 317 316 316 321 323
296 296 296 296 296 297 298 299 298 299 300 301 305 309 309 307 307 307 308 309 310 311 311 310 311 311 310 309 310 311 310 310 310 309 309 310 310 310 309 309 310 310 311 312 312 311 310 311 312 313 315 316 315 316 317 318 318 316 315 316 316 316 316 317 316 316 315 315 315 315 314 315 316 316 316 317 317 318 318 316 317 318 316 318 321 323 323
295 296 296 296 296 297 298 299 299 299 299 300 306 310 307 306 307 307 308 309 308 309 310 309 309 310 310 310 310 310 310 310 310 309 308 310 310 309 309 310 309 310 311 311 312 312 312 312 313 314 315 315 314 315 316 318 318 316 316 317 317 316 316 316 316 315 314 314 314 314 313 314 315 317 318 318 318 319 319 318 320 319 317 320 324 324 323
296 296 296 296 296 297 298 299 299 299 300 302 306 309 308 307 308 308 308 309 310 310 309 309 309 308 309 309 309 310 310 309 309 309 309 310 310 310 310 310 309 309 310 311 314 316 314 314 316 317 318 318 316 315 315 316 317 316 316 317 317 317 317 317 316 315 314 314 314 313 313 314 315 315 316 317 318 319 320 321 321 322 322 323 324 322 321
295 296 296 296 297 298 298 298 298 299 301 304 306 307 307 307 307 308 308 307 309 310 309 309 308 307 308 308 308 310 310 309 308 308 309 310 310 310 311 311 310 310 311 312 314 314 315 315 316 317 317 318 317 316 316 315 316 316 316 318 319 318 317 317 316 315 315 315 314 314 314 314 314 314 314 315 317 318 319 320 321 322 323 322 321 319 318
296 296 296 296 296 297 297 298 298 298 301 305 306 304 306 306 305 307 308 306 306 308 308 308 307 306 307 307 307 308 308 309 309 307 308 309 308 308 310 311 311 311 311 311 310 310 312 313 313 313 314 314 314 315 315 314 315 316 317 318 319 318 317 317 316 315 315 314 314 314 314 314 314 314 313 314 316 318 317 317 319 321 321 320 319 317 316
295 295 296 296 296 297 297 297 298 297 299 304 306 304 305 306 306 306 307 305 305 306 307 307 306 305 305 305 306 306 306 308 309 307 307 307 307 307 309 310 311 311 309 309 308 308 309 310 310 310 311 312 312 313 313 313 315 316 317 318 317 316 316 316 316 315 315 314 314 314 314 314 315 315 315 315 315 315 315 315 317 319 319 318 318 317 315
295 295 295 296 296 297 297 297 298 297 297 301 305 304 302 304 306 307 307 305 304 306 306 305 305 305 305 305 305 305 305 307 308 307 307 307 307 307 307 309 309 308 307 307 306 307 308 308 308 310 310 311 312 312 312 313 313 314 316 317 316 317 318 317 316 315 314 315 315 315 316 316 315 315 316 317 316 315 315 315 315 316 316 317 316 315 314
296 295 295 295 296 297 298 297 297 298 296 298 304 304 299 301 306 307 306 304 305 305 304 303 304 304 305 306 305 304 304 305 306 307 307 307 307 306 306 307 307 306 305 306 307 307 308 309 309 309 311 311 312 312 312 312 312 313 314 315 316 318 317 317 316 315 315 315 317 317 317 316 314 313 314 315 316 316 315 315 314 314 314 315 315 314 313
296 295 294 295 296 297 298 297 297 297 297 298 303 303 299 302 307 307 304 304 304 305 304 304 304 304 304 305 305 305 305 304 305 306 306 306 307 306 305 306 306 304 305 305 307 309 310 311 311 310 310 311 311 312 312 312 312 312 313 314 314 316 316 315 315 315 315 316 317 317 316 314 313 312 312 313 315 316 315 315 314 314 314 314 314 313 312
295 295 295 295 296 297 297 297 297 297 297 298 302 302 300 301 305 306 304 304 303 303 304 304 304 304 304 303 304 306 306 305 305 305 305 306 306 305 304 304 304 304 304 306 308 310 310 311 312 311 311 311 312 313 312 311 312 312 312 312 312 314 314 314 314 315 315 315 316 315 315 315 314 312 311 313 314 314 314 314 314 314 314 314 313 311 310
296 295 295 295 295 297 297 297 297 297 297 299 302 302 299 298 302 305 305 304 302 303 303 303 303 305 305 304 303 305 305 305 305 306 305 305 305 304 303 303 303 303 304 306 309 309 309 309 310 311 312 312 313 313 313 312 311 311 311 311 311 312 312 313 313 313 313 313 313 314 314 315 314 312 311 312 312 312 312 313 312 312 313 313 311 309 309
296 295 295 295 295 296 297 297 297 297 298 300 302 301 299 299 302 305 305 303 303 302 302 302 303 304 305 304 303 303 304 304 304 305 306 305 304 304 303 302 303 304 305 307 309 308 308 309 310 310 311 312 312 312 312 312 311 311 311 311 311 311 312 312 312 313 312 312 312 313 313 313 312 311 310 309 310 311 312 312 311 311 312 313 311 310 310
296 296 295 295 295 296 297 297 298 298 297 299 301 301 299 299 302 305 304 302 301 302 301 301 303 303 304 303 303 303 304 304 304 304 305 304 303 303 303 303 304 305 305 306 308 308 307 308 309 309 310 310 310 311 311 311 311 311 310 311 312 312 312 311 311 311 311 311 312 312 311 310 310 310 309 308 308 310 311 312 311 310 310 311 310 310 310
296 296 295 295 295 296 297 297 298 298 297 298 301 301 299 299 301 305 305 302 301 302 301 300 301 302 302 303 303 303 303 304 305 305 305 305 304 303 303 304 305 305 305 306 306 306 306 306 307 309 309 308 308 309 309 309 310 310 310 310 311 311 310 310 311 311 310 310 311 312 310 308 308 308 307 307 308 310 311 311 310 309 310 309 309 309 309
296 296 296 295 295 296 297 297 297 298 298 299 301 300 298 298 301 303 303 302 301 301 300 300 300 301 301 302 303 303 302 303 304 304 304 304 304 303 304 305 305 305 306 306 305 305 305 305 306 307 307 307 307 308 308 308 308 308 308 309 309 309 309 309 310 309 310 310 310 311 310 306 307 307 306 307 309 309 309 309 309 309 309 309 308 308 308
296 296 296 296 296 296 296 297 297 298 297 298 301 302 299 297 300 302 303 302 301 301 300 299 299 299 300 300 301 301 302 302 303 304 304 303 303 304 305 304 304 305 306 306 305 305 305 305 306 306 306 306 307 307 306 306 306 307 307 308 308 308 308 309 308 308 309 309 310 311 309 305 306 307 306 307 308 307 307 307 308 307 307 307 307 307 307
296 296 296 296 296 296 296 296 297 297 297 298 302 303 300 297 298 300 302 302 302 301 300 299 299 298 298 299 299 300 300 301 301 303 304 303 303 304 304 303 303 304 305 305 305 304 305 305 305 305 305 306 306 305 305 305 305 306 307 307 307 308 307 308 308 307 308 309 308 308 307 305 306 307 306 305 306 306 306 306 306 306 306 305 305 305 305
296 296 296 296 296 296 296 296 296 297 297 298 301 303 302 299 298 299 300 301 300 300 299 299 299 299 298 298 298 299 299 299 299 301 302 303 303 303 303 304 304 304 304 305 305 304 305 305 305 305 305 305 305 305 305 305 305 306 306 306 306 307 307 308 307 306 306 307 306 306 306 305 305 306 305 305 304 304 305 305 304 305 305 305 304 304 304
296 296 296 296 296 296 296 296 296 296 296 297 299 302 303 301 300 300 302 301 300 300 300 300 300 300 299 298 298 298 298 298 299 300 300 301 302 302 302 302 303 304 303 303 304 305 304 304 304 304 304 305 305 305 304 304 304 305 305 305 305 306 306 306 306 306 305 306 305 305 305 305 304 304 305 304 304 304 304 304 303 303 303 303 303 303 302
295 296 296 296 297 296 296 296 296 296 296 296 297 300 302 301 300 301 303 302 301 301 301 300 301 300 299 298 298 298 298 298 299 299 299 299 302 302 301 300 301 303 303 302 303 304 303 303 304 304 303 304 304 304 304 304 304 304 304 304 305 305 306 306 306 306 305 305 305 304 304 304 303 303 303 303 303 303 303 303 302 301 301 301 301 301 301
294 295 296 296 296 297 296 296 296 296 296 296 296 299 301 300 299 302 304 302 301 302 302 300 300 299 298 299 299 298 298 298 299 299 298 298 300 301 301 300 300 302 302 301 302 304 303 302 303 303 303 303 304 304 304 304 304 304 303 303 304 304 304 305 305 305 305 304 304 304 304 303 303 303 302 302 302 302 301 301 301 300 300 300 300 300 300
294 294 295 295 296 296 296 296 296 296 296 295 295 299 300 298 296 300 303 303 301 302 302 301 300 299 299 299 298 298 298 299 299 299 299 299 299 300 301 301 301 301 302 301 301 302 302 302 303 303 303 303 303 303 303 303 304 303 303 303 304 303 303 304 304 304 304 304 304 304 303 303 303 303 303 302 302 301 301 301 301 300 300 300 300 300 299
296 295 294 294 295 296 296 296 296 296 296 295 295 298 299 298 296 297 300 303 303 303 302 302 301 299 299 299 299 298 299 299 299 300 299 299 299 300 300 300 301 301 302 301 300 301 302 302 302 301 302 302 303 303 303 303 303 302 302 303 303 303 303 303 303 303 303 303 304 304 303 303 303 302 302 302 301 301 301 301 301 301 301 300 300 300 300
297 296 295 294 295 295 296 296 296 296 296 295 295 297 298 298 297 296 297 299 303 305 303 301 301 300 300 300 299 299 299 299 299 299 299 299 299 300 299 300 300 300 300 300 301 301 302 302 301 301 301 301 302 302 302 302 302 302 302 303 303 303 303 303 302 302 302 303 303 303 302 302 302 302 301 301 301 300 300 300 300 300 300 300 300 300 300
297 296 295 295 294 295 296 296 295 296 295 295 297 300 301 299 298 297 296 297 300 303 304 301 300 301 301 300 300 299 299 300 300 300 300 299 299 299 299 299 300 300 299 299 300 300 301 300 300 301 300 300 302 302 301 301 301 301 302 303 302 302 302 303 302 302 303 302 302 302 302 302 302 301 301 301 300 300 300 300 300 299 299 299 299 299 299
296 296 295 295 294 294 295 296 296 296 295 297 300 303 303 303 300 297 296 296 298 301 303 302 300 301 300 300 300 300 299 300 300 300 300 300 299 299 299 299 300 299 300 300 299 299 300 300 300 300 299 299 300 300 300 300 301 301 302 302 301 301 301 301 302 302 302 301 301 301 301 301 301 300 300 300 300 299 300 299 299 299 298 298 298 298 298
295 295 295 294 294 294 295 296 296 295 296 300 303 303 303 305 302 297 296 296 297 299 302 302 300 301 300 300 300 300 299 299 300 300 299 300 300 299 299 300 300 299 299 299 299 298 299 299 300 300 300 299 298 299 300 300 300 301 301 301 300 300 300 300 300 301 301 301 300 300 300 300 299 300 300 300 299 299 299 299 298 297 297 297 297 297 297
295 295 294 294 294 294 295 296 296 296 299 302 302 301 300 300 299 296 295 296 298 301 303 301 300 300 301 301 300 299 299 300 301 300 300 300 300 300 300 300 300 299 298 298 299 299 298 298 298 300 300 298 298 299 300 300 299 300 301 301 300 300 300 300 300 299 300 300 299 299 300 299 299 299 300 299 299 299 298 298 298 297 297 296 297 297 296
295 294 294 294 294 293 295 296 296 296 298 299 299 299 298 297 296 295 295 296 299 302 302 301 300 300 300 301 300 299 300 301 301 301 301 300 299 300 300 300 300 299 298 298 299 299 298 298 299 299 299 298 298 299 299 299 300 300 300 300 300 299 300 299 299 299 299 299 299 299 300 299 299 299 299 299 298 298 298 297 297 297 296 296 296 296 296
294 294 294 294 294 294 295 296 297 298 299 300 301 301 299 297 296 295 295 298 301 301 299 299 300 299 299 301 301 299 300 301 301 301 301 300 299 300 301 300 300 300 299 299 299 299 299 300 299 299 299 299 298 298 298 299 300 299 299 300 300 299 299 299 299 299 299 299 299 299 299 299 298 298 298 298 298 297 297 297 297 296 296 296 296 296 295
294 294 294 294 294 294 295 296 298 300 300 301 302 301 299 298 297 295 295 299 302 301 299 299 300 300 300 301 301 300 300 301 301 300 301 300 300 300 300 300 300 300 299 299 299 300 300 300 299 299 299 299 298 297 298 299 300 299 299 299 299 299 300 299 299 299 299 299 298 298 298 298 298 298 298 298 297 297 297 297 296 296 296 296 295 295 295
294 294 294 293 294 297 298 298 299 301 302 302 301 300 298 297 296 295 296 299 301 301 300 300 300 301 301 301 300 300 300 301 301 301 301 300 300 299 299 300 300 300 299 299 299 300 300 299 298 299 300 299 298 298 299 300 300 299 299 299 299 299 299 299 299 299 299 298 298 298 298 298 297 297 297 297 297 297 297 297 296 296 295 295 296 296 295
294 293 294 296 298 300 301 300 300 301 302 301 300 298 297 298 298 297 298 300 300 300 301 301 301 301 301 301 300 300 300 301 301 301 301 301 300 299 299 300 299 299 299 300 300 300 299 299 298 298 299 299 299 300 300 299 299 299 299 299 299 299 299 299 299 299 298 298 298 298 298 298 297 297 297 297 296 297 297 297 296 295 295 296 296 296 295
294 295 297 300 301 301 301 301 300 299 298 298 299 299 299 300 300 300 300 300 300 300 301 301 301 301 301 301 301 299 299 300 301 301 301 300 300 300 300 300 299 298 299 299 299 299 298 298 298 298 299 299 300 299 299 298 298 298 298 298 299 299 298 299 299 298 298 298 298 298 298 298 297 297 297 297 296 297 297 296 296 296 296 296 295 295 295
297 298 300 301 300 301 301 300 298 297 297 298 300 301 300 299 300 300 299 300 301 301 301 301 301 301 301 302 301 300 300 300 301 301 301 300 299 300 300 299 299 298 298 299 299 298 298 299 299 298 299 300 300 299 298 298 298 298 298 298 298 298 298 298 298 298 298 298 298 298 298 297 297 297 297 297 297 297 297 296 296 296 296 296 295 295 295
300 300 300 300 301 301 299 297 296 298 300 300 299 300 299 299 299 300 299 300 300 300 300 301 301 300 301 301 301 301 300 300 300 301 300 300 299 299 299 299 299 298 298 299 299 298 298 298 298 298 299 300 300 299 298 298 298 298 298 298 298 298 298 298 298 298 298 298 298 297 297 297 297 297 297 297 297 297 296 296 296 296 296 295 295 294 294
300 301 300 300 299 299 298 297 298 300 300 299 298 298 299 299 299 299 299 300 299 299 300 301 301 301 301 300 300 301 301 300 300 300 300 300 300 299 299 299 299 298 298 299 299 298 298 298 298 298 299 299 299 298 298 298 298 298 298 298 298 298 298 298 298 298 298 298 297 297 297 297 297 297 297 297 297 297 296 296 296 296 295 295 295 295 294
298 298 298 297 297 297 298 300 300 299 298 298 298 298 298 298 299 299 300 300 300 300 300 300 300 301 301 300 300 300 300 300 300 300 300 299 299 299 298 299 298 297 298 299 299 298 298 298 298 298 299 299 299 298 298 298 298 298 298 298 298 298 298 298 298 298 297 297 297 297 297 297 297 297 297 297 297 297 296 296 296 295 295 295 295 295 295
296 296 297 298 299 299 299 299 299 298 298 298 298 298 298 299 299 299 299 299 300 300 300 300 300 300 300 300 300 300 300 299 299 299 300 299 299 298 298 298 298 298 299 299 298 298 298 298 298 299 299 299 298 298 298 298 297 298 298 298 298 298 298 298 297 297 297 297 297 297 297 297 297 297 297 297 296 297 296 296 295 295 295 295 295 295 295
297 297 298 299 299 298 298 298 298 298 298 298 298 299 299 299 299 300 300 299 300 300 300 300 300 300 300 300 300 300 300 299 299 299 299 299 299 298 298 298 298 299 299 298 298 298 298 298 298 299 299 298 298 298 298 297 297 297 297 298 298 298 298 297 297 297 297 297 297 297 297 297 297 296 296 296 296 296 295 295 295 295 295 295 295 295 295
299 298 298 298 297 297 298 298 298 298 299 298 299 300 300 299 300 300 300 299 300 300 300 300 300 300 300 300 300 299 299 299 299 299 299 299 299 298 298 298 299 299 298 298 298 298 298 298 299 299 298 298 298 297 297 297 297 297 297 297 297 297 297 297 297 297 297 297 297 297 297 296 296 296 296 296 295 295 295 295 295 295 296 295 295 295 295
299 299 298 298 298 297 298 297 298 298 299 299 300 300 301 300 300 300 300 299 300 300 300 300 300 300 300 300 300 299 299 299 299 299 299 299 298 298 298 298 298 298 297 298 298 298 297 298 299 298 298 297 297 297 297 297 297 297 297 297 297 297 297 297 297 297 297 297 297 297 297 296 296 296 296 295 295 295 295 295 295 296 296 296 295 295 295
299 298 298 298 298 298 298 299 299 300 300 300 301 301 300 300 300 300 299 299 300 300 300 300 300 300 300 300 299 299 300 299 299 299 299 298 298 298 298 298 297 297 297 298 297 297 298 298 298 298 297 297 297 297 296 297 297 297 297 297 297 297 298 298 297 297 297 297 296 296 296 296 296 296 296 296 296 296 295 295 295 295 295 296 295 295 294
299 299 298 298 298 298 299 299 300 300 300 300 300 300 300 300 300 300 300 299 299 299 299 300 300 299 299 299 299 299 299 299 298 298 298 298 298 298 298 297 297 297 298 298 298 298 298 298 298 297 297 297 297 297 296 296 296 297 297 297 297 298 298 298 298 298 297 297 297 297 297 297 296 296 296 296 296 296 296 296 295 295 295 296 295 295 294
299 299 299 298 299 300 300 300 300 301 300 300 299 300 300 300 300 300 299 299 299 299 299 299 299 299 299 299 299 299 299 299 298 298 298 298 297 297 297 297 297 298 298 298 298 298 298 298 298 297 297 297 297 297 297 296 296 296 296 297 297 298 298 298 298 298 298 297 297 297 297 297 297 297 297 297 297 297 297 296 296 296 296 296 296 295 295
298 299 299 299 299 300 300 300 300 300 301 300 300 300 300 300 300 300 299 299 299 299 299 299 298 298 299 299 298 298 298 299 298 298 298 298 298 297 298 297 298 298 298 298 298 298 298 297 297 297 297 297 297 297 297 297 297 297 297 297 297 297 297 297 298 298 298 297 297 297 297 297 297 297 297 297 297 297 297 297 296 296 296 296 296 295 295
298 299 299 300 300 300 300 300 300 300 301 300 300 300 300 300 300 300 299 299 299 299 299 299 299 299 298 298 298 298 298 298 298 298 298 298 298 298 298 298 298 298 298 298 298 297 297 297 297 297 297 297 297 297 297 297 297 297 297 297 297 297 297 297 297 297 297 297 297 297 297 297 297 297 297 297 296 297 297 297 296 296 296 296 296 296 295
299 299 300 300 300 300 300 300 300 300 300 300 300 300 300 299 299 299 299 298 299 299 299 299 299 298 298 298 298 298 298 298 298 298 298 298 298 298 298 298 298 298 298 297 297 297 297 297 297 296 297 297 297 297 297 297 297 297 297 297 297 297 297 297 297 297 297 297 297 297 297 297 296 296 297 297 296 297 297 296 296 296 296 296 295 295 295
Wind_Speed
16 16 16 16 17 17 17 16 14 14 14 11 8 8 9 6 3 4 7 7 3 6 6 6 7 7 8 9 9 7 4 6 12 13 11 10 10 10 9 8 10 9 8 9 8 7 8 6 5 5 5 2 5 3 8 7 6 6 6 2 3 1 4 7 8 8 6 4 3 4 5 6 8 7 7 7 8 7 8 8 6 6 7 6 7 5 3
16 16 16 16 16 16 15 14 13 13 14 13 11 9 8 6 2 1 7 8 3 5 5 4 4 5 8 8 8 9 9 9 11 12 10 8 7 8 8 8 9 10 8 7 8 7 7 7 7 5 5 3 5 3 4 5 3 0 0 2 1 3 4 6 7 6 7 7 7 6 6 7 8 8 8 9 10 10 9 7 6 6 7 6 6 3 3
16 17 17 16 15 15 14 13 12 11 11 12 11 9 9 6 3 1 6 8 5 3 5 5 5 5 7 7 6 8 9 8 9 10 8 7 6 6 7 7 7 8 8 7 10 9 7 6 6 4 5 7 7 9 7 5 4 6 8 6 3 1 1 2 6 6 6 6 3 2 3 5 7 8 7 7 9 11 9 6 6 7 7 9 7 1 6
17 17 17 15 15 14 14 13 11 10 9 9 9 8 9 6 2 3 5 5 5 5 7 8 6 5 5 5 5 6 6 5 6 8 6 6 7 7 7 7 6 8 10 9 10 11 9 8 6 5 5 8 8 9 11 10 8 14 15 10 5 1 2 2 1 2 2 1 3 9 11 8 8 9 8 7 8 9 7 7 8 5 5 8 5 7 11
17 18 17 15 14 14 14 13 12 10 8 8 7 7 7 4 3 5 5 3 4 5 8 10 6 4 5 4 3 5 6 3 2 5 5 4 7 7 6 7 7 8 9 8 9 11 10 9 8 8 6 3 5 5 7 7 10 16 14 10 6 3 3 4 3 2 1 0 3 10 14 11 4 3 3 4 4 6 8 8 6 4 4 3 4 12 14
17 18 16 15 13 13 14 14 13 12 9 7 7 6 5 4 3 5 4 4 5 5 7 9 6 6 5 2 2 3 4 1 1 3 4 3 4 5 5 7 8 8 9 8 8 8 9 8 6 6 6 2 4 6 6 7 11 13 10 10 7 5 6 8 7 6 5 4 4 7 9 9 7 5 4 4 3 1 3 2 3 4 3 2 8 13 13
16 17 16 14 13 13 15 14 14 12 9 8 8 6 5 3 3 5 3 4 6 5 7 8 7 8 8 4 3 4 2 3 3 3 3 1 4 5 3 4 6 6 8 8 5 3 4 4 1 3 5 3 2 4 4 6 11 12 9 8 7 4 5 9 9 9 9 8 8 8 7 6 6 6 6 7 6 6 5 6 6 5 5 8 12 15 14
16 17 16 14 13 14 15 15 15 13 10 10 10 8 8 5 4 4 2 4 7 6 6 7 6 6 8 6 6 7 6 5 5 6 5 4 6 7 4 3 5 4 2 1 3 6 5 2 3 5 5 4 1 1 1 2 8 11 8 6 4 3 3 7 8 8 9 10 10 10 10 9 7 6 5 6 5 4 7 8 8 8 10 11 14 14 11
15 16 15 15 14 14 15 15 16 13 10 11 10 9 8 6 5 5 4 3 5 4 5 6 5 6 7 6 7 7 7 7 5 7 9 9 7 8 8 7 5 5 9 9 9 8 7 5 5 5 4 3 2 1 1 1 3 8 7 5 3 4 4 6 7 7 7 10 11 11 11 11 12 12 9 5 3 4 6 6 6 6 8 11 11 9 7
14 15 15 15 14 14 15 16 16 14 12 12 11 9 8 6 3 4 5 3 4 4 4 6 5 4 5 5 6 6 7 9 6 3 6 10 11 11 11 9 4 5 9 10 10 9 7 5 4 4 3 3 2 2 2 2 2 3 4 5 4 5 4 5 8 7 6 9 11 9 8 9 9 9 9 8 5 2 3 4 6 7 4 5 6 6 8
13 14 14 14 14 14 15 16 17 16 14 14 12 11 9 6 5 7 7 2 4 5 5 6 5 4 3 2 4 6 7 9 8 5 4 8 12 12 13 12 6 6 9 11 10 9 7 5 4 3 3 2 1 2 2 2 1 2 1 3 4 3 3 4 5 6 6 8 9 9 8 8 3 2 3 3 7 7 4 3 4 6 6 5 8 10 12
12 13 14 14 13 13 15 15 16 16 16 15 12 10 8 5 6 9 6 3 4 4 5 5 6 6 5 3 4 5 5 7 9 8 5 7 11 12 13 13 9 7 10 12 10 8 6 4 3 3 3 3 2 2 2 3 2 1 2 1 3 5 6 5 4 4 4 4 7 8 7 4 2 3 4 4 1 6 7 6 6 5 6 10 12 12 12
12 12 13 13 12 12 14 14 15 16 15 15 14 11 9 7 7 8 6 4 4 4 4 5 8 8 8 7 5 2 3 0 2 5 6 6 10 12 12 11 10 10 12 12 10 8 5 3 3 4 4 4 3 3 3 3 2 1 2 3 2 2 5 5 4 3 1 3 6 5 2 4 6 4 3 2 1 6 7 5 5 6 8 11 13 13 13
11 12 12 12 11 11 12 13 15 15 14 16 15 12 10 8 7 8 7 4 4 7 6 3 6 9 8 8 8 2 3 4 4 1 2 4 6 9 10 11 12 12 13 11 8 5 2 1 2 3 4 5 5 5 5 4 2 2 2 2 3 3 2 2 3 4 3 5 5 2 2 4 5 5 3 2 2 2 1 2 5 5 6 11 13 13 15
10 11 11 11 10 9 10 12 14 14 14 16 15 12 10 9 7 7 9 5 2 7 9 6 6 9 7 8 9 6 3 3 1 3 3 1 3 4 5 10 12 12 13 11 6 3 1 2 3 4 4 4 4 4 4 5 3 1 2 3 3 4 2 2 4 4 3 5 6 2 2 3 3 7 6 5 5 5 5 2 5 1 4 11 13 12 15
10 10 11 11 10 9 9 10 12 13 14 15 14 11 10 11 10 8 9 7 3 4 8 9 7 9 7 7 9 8 5 5 4 1 2 4 6 5 5 8 8 7 10 10 5 2 2 3 4 4 3 3 2 2 4 4 4 3 2 2 3 4 4 4 6 5 4 6 7 5 3 1 2 6 6 5 3 4 4 2 4 2 4 11 13 12 14
9 9 10 10 9 8 7 8 10 12 12 14 14 12 10 10 11 9 8 9 9 7 9 11 8 6 6 6 7 8 7 6 5 3 2 4 6 7 9 8 4 3 7 8 4 3 3 4 4 4 2 1 2 2 4 4 1 2 3 4 4 4 4 5 7 7 7 7 6 3 1 3 4 5 5 5 4 2 5 5 4 6 7 11 12 13 13
8 8 8 9 9 8 7 7 9 10 11 13 13 12 10 9 10 10 7 7 8 8 10 13 11 9 8 7 7 8 8 8 6 4 3 2 6 9 10 10 6 3 6 6 3 2 3 3 4 4 2 1 2 4 1 1 1 1 1 1 2 3 4 5 6 7 6 7 6 2 4 5 5 6 5 6 4 2 3 1 5 9 11 11 11 12 11
7 7 7 7 8 8 7 6 7 8 9 12 12 10 9 8 9 10 10 8 8 9 9 11 12 12 10 9 9 9 8 8 8 6 3 3 7 11 8 4 6 7 7 5 2 2 3 1 1 3 2 2 1 2 1 2 2 4 3 4 3 2 3 5 6 6 5 5 6 4 3 4 7 4 5 7 5 2 2 5 8 9 10 11 10 8 9
6 6 6 6 7 7 7 6 6 6 7 10 12 9 9 9 9 10 11 8 7 9 10 10 12 13 12 12 13 12 11 10 11 9 5 6 11 13 6 1 6 8 6 5 3 3 3 1 1 3 4 0 1 1 1 1 1 3 4 5 2 3 3 4 2 2 4 4 5 4 1 4 6 3 2 6 4 3 5 7 9 9 9 10 9 7 6
5 6 6 6 5 6 7 6 5 5 5 8 11 8 7 8 9 9 9 8 5 7 8 9 11 12 12 12 12 13 13 12 12 11 9 9 12 10 2 3 8 7 4 5 3 2 3 3 2 2 2 1 1 2 1 1 2 3 5 4 1 3 4 4 3 4 4 3 1 1 2 4 5 3 4 6 7 7 7 9 10 9 9 10 9 8 7
4 5 5 5 4 4 5 5 5 5 4 6 9 7 6 7 8 9 10 10 8 8 7 6 8 10 11 11 11 11 12 12 11 11 12 11 9 8 6 6 7 7 7 7 4 1 1 3 2 2 2 1 1 1 1 2 2 2 4 2 2 4 4 3 3 4 3 4 4 4 4 7 9 8 8 9 9 7 8 10 9 7 7 8 8 7 7
2 3 4 4 4 3 4 4 4 5 4 4 5 6 5 4 5 7 7 6 6 6 4 3 4 7 9 10 10 10 10 11 11 11 13 13 7 5 8 8 7 6 7 9 7 5 4 4 3 3 2 3 4 3 2 2 1 1 1 2 4 5 4 3 1 5 7 7 7 6 7 8 10 10 10 10 9 8 9 11 11 11 10 8 8 7 6
2 2 2 3 3 3 4 4 4 4 4 3 3 5 4 4 3 4 4 2 1 2 3 4 5 6 7 7 8 9 9 11 11 11 13 13 9 5 7 9 8 5 6 8 7 6 5 3 2 2 2 4 5 4 2 1 1 2 2 1 3 4 3 2 1 4 4 4 6 7 7 8 9 9 10 9 9 10 11 11 11 10 9 9 7 6 6
3 2 2 2 2 2 2 3 3 4 4 4 3 5 5 3 1 2 3 3 3 2 1 5 5 4 3 4 6 8 9 9 9 10 11 12 11 8 6 7 7 5 5 6 7 6 5 3 2 1 2 3 4 3 2 2 2 3 3 1 2 3 2 1 1 1 2 5 8 8 8 9 8 8 8 8 8 9 10 11 10 8 7 7 6 6 6
4 4 4 2 2 2 1 1 2 3 4 3 4 5 5 2 1 1 2 3 4 3 1 4 4 2 2 4 5 6 7 7 7 9 10 10 9 8 7 5 4 3 3 4 5 6 5 3 4 3 2 3 4 4 2 1 1 2 2 2 2 2 2 1 0 2 5 7 9 10 9 8 7 7 7 7 7 8 9 9 8 8 8 7 6 6 6
5 5 5 4 3 2 1 1 1 2 3 3 4 5 5 3 1 2 1 1 2 3 1 4 4 3 3 4 4 5 7 7 6 7 9 9 8 7 7 7 5 4 4 3 2 4 4 1 3 3 3 4 5 4 2 3 3 3 1 2 1 3 2 2 1 2 2 4 8 7 4 4 7 8 8 7 6 6 6 6 6 5 5 5 4 4 4
6 6 5 5 4 3 1 1 1 2 2 3 4 5 5 4 3 1 3 3 1 5 4 4 5 4 3 3 4 4 6 7 6 6 6 8 8 7 8 8 7 6 6 4 2 2 3 3 3 2 2 4 4 2 1 2 3 2 1 2 3 4 5 4 2 1 3 5 7 4 2 4 9 9 7 6 5 4 4 3 3 2 2 2 3 3 3
6 6 5 6 5 3 2 2 2 2 2 3 5 3 2 4 4 2 2 3 2 5 5 1 4 3 2 3 3 4 5 6 6 5 5 6 7 7 7 7 7 7 6 5 4 4 4 5 5 4 3 5 6 2 0 3 3 1 3 3 3 4 5 4 4 3 4 6 5 2 3 6 9 8 6 5 3 2 2 3 2 1 1 2 2 3 3
5 5 5 5 5 4 2 2 2 3 3 4 3 1 4 2 4 4 1 3 3 2 5 3 1 3 3 2 2 3 5 5 5 5 5 5 6 7 6 5 6 6 4 3 4 4 3 4 4 3 3 4 6 3 2 4 3 3 4 2 2 2 2 3 4 3 5 7 5 4 5 7 7 6 5 4 2 2 2 2 2 1 2 2 2 2 3
4 5 4 4 4 4 3 2 4 4 4 5 3 5 4 2 3 4 2 4 5 2 6 5 0 3 4 2 1 2 4 4 3 3 2 2 4 5 5 5 6 6 6 4 5 4 3 3 3 2 2 2 4 4 3 4 2 2 3 1 1 1 1 2 3 3 5 6 4 4 5 4 3 3 4 3 3 3 3 2 1 0 2 2 1 2 2
4 4 4 3 2 4 3 2 4 5 3 1 3 3 1 1 3 3 2 4 4 2 6 4 1 1 2 2 2 0 2 2 1 1 1 4 5 4 3 4 5 5 5 4 2 2 4 4 2 1 3 3 3 5 4 3 0 3 2 2 2 2 1 2 2 2 3 4 2 1 1 1 0 1 3 3 2 2 2 1 1 0 1 1 1 1 2
5 4 4 3 1 4 4 3 4 4 3 1 2 1 1 1 1 1 3 3 1 3 5 3 1 1 1 3 4 1 3 3 2 1 3 5 5 4 1 3 2 2 2 4 3 3 3 2 3 1 4 1 4 5 4 2 2 2 3 3 3 2 2 2 2 2 3 2 1 1 1 1 0 1 1 2 2 1 0 1 1 1 1 0 0 1 2
4 4 3 2 2 5 5 4 5 5 3 2 0 2 3 1 3 1 4 3 0 3 2 3 3 1 1 2 4 1 3 4 3 2 3 5 4 5 3 1 1 1 2 4 3 1 1 2 4 2 2 2 2 4 3 1 1 2 3 4 4 4 4 3 3 3 3 2 1 0 0 1 1 2 2 3 3 2 1 2 2 1 1 1 1 1 3
2 2 2 1 4 6 6 6 6 4 1 0 2 4 4 2 2 2 5 3 1 3 2 3 5 2 1 3 3 3 3 3 2 4 4 3 3 4 5 3 2 2 2 3 4 3 1 2 4 4 2 3 0 3 3 1 2 3 4 4 5 6 6 5 5 5 4 3 2 1 1 1 2 3 3 3 4 4 4 4 3 2 3 3 2 3 5
1 1 2 5 8 7 5 4 3 1 2 2 3 4 2 3 3 3 5 4 2 2 1 3 5 2 1 1 3 3 1 2 1 2 2 2 1 3 5 5 2 3 2 4 4 2 2 3 2 5 1 1 2 3 2 2 1 2 3 4 5 6 7 7 7 6 5 4 3 2 2 3 4 4 4 5 5 5 5 5 4 4 4 5 4 5 5
2 3 7 9 8 5 3 2 2 3 4 4 3 0 4 6 5 4 4 2 1 2 3 4 2 2 2 2 4 2 2 2 1 1 2 3 3 2 3 5 2 3 3 5 2 2 3 1 3 5 4 3 3 2 1 3 4 3 4 4 4 6 7 7 6 6 6 5 4 4 4 5 4 4 5 5 6 6 6 6 6 5 5 5 5 5 5
6 7 8 6 3 1 2 2 4 5 4 3 3 3 4 3 3 3 3 1 1 1 3 4 1 2 1 1 3 2 3 3 3 2 2 3 3 2 3 3 2 2 4 3 2 2 3 3 3 4 4 5 5 4 3 5 5 5 6 6 5 6 8 7 6 7 7 6 5 5 5 5 5 5 6 6 6 6 7 7 6 6 6 5 5 5 5
7 6 3 2 2 1 1 2 4 5 5 4 3 2 1 1 1 2 2 2 2 2 1 2 2 2 2 1 3 3 3 5 5 3 2 2 2 3 3 2 1 2 5 3 3 1 4 4 2 4 4 3 3 2 1 4 5 6 7 8 7 8 8 8 8 8 8 6 5 4 4 5 6 6 7 7 6 7 8 7 7 6 6 5 5 5 5
4 1 2 1 1 1 1 3 5 7 5 2 1 1 1 1 0 1 3 3 2 1 1 1 1 2 3 4 1 2 2 4 5 5 3 1 1 2 4 3 2 3 5 3 3 1 4 4 3 4 4 1 3 3 1 5 6 6 6 7 8 9 10 9 9 8 7 6 4 3 3 5 5 6 7 7 7 8 9 8 6 6 6 5 5 6 6
3 2 2 2 3 4 4 4 5 4 2 1 1 0 1 0 1 1 3 2 2 2 0 1 1 1 1 4 4 2 3 2 4 6 5 2 1 2 5 4 2 3 5 2 2 1 4 4 4 4 4 2 1 1 3 5 5 5 5 7 8 9 10 9 9 8 7 6 5 3 4 5 5 5 5 6 7 9 9 9 7 6 5 5 6 7 6
5 6 7 7 7 7 6 4 3 2 1 0 0 1 0 1 2 2 1 1 1 2 1 0 2 1 1 3 5 3 2 3 3 5 4 1 2 2 5 3 1 3 4 2 3 3 4 4 4 4 2 2 2 3 4 5 5 5 5 5 6 7 8 8 8 8 7 6 4 4 4 4 5 4 4 5 6 7 8 9 8 7 6 5 6 6 5
9 9 9 7 5 2 2 2 2 1 0 0 1 1 1 1 2 1 1 2 1 1 1 0 2 3 1 2 4 4 1 1 3 5 4 2 1 3 4 3 2 4 3 3 4 5 4 4 5 3 1 2 2 3 4 5 6 5 5 4 4 5 7 8 8 7 6 4 3 3 3 3 3 3 3 4 6 7 7 8 8 7 6 5 6 6 5
7 6 4 3 1 2 1 1 1 1 1 1 2 2 2 2 2 1 2 3 2 1 1 1 3 3 1 1 3 3 2 1 1 3 3 2 2 2 3 2 3 4 4 4 4 4 4 4 4 4 3 2 2 3 4 5 5 6 5 5 4 5 7 8 8 7 6 4 3 3 3 2 2 3 4 4 5 7 7 7 7 7 6 5 5 6 5
1 2 2 1 1 1 1 1 2 2 1 1 2 2 2 2 1 2 3 2 0 0 1 2 4 5 4 2 2 2 2 1 1 2 2 2 3 3 3 3 3 4 4 5 5 4 4 4 2 2 2 2 2 2 4 5 5 5 6 6 7 8 8 9 8 8 7 5 4 4 4 3 2 3 4 5 5 6 7 7 7 6 6 5 5 5 5
3 3 3 2 1 2 2 2 2 2 2 2 1 1 2 2 3 4 4 0 2 2 2 4 5 6 6 4 2 2 3 4 3 2 2 3 4 3 3 4 5 4 4 5 5 5 5 3 2 2 2 2 2 3 5 6 5 6 6 6 7 9 10 10 10 9 8 7 6 5 4 4 3 4 5 5 6 6 7 7 7 6 6 5 5 5 4
3 2 3 2 1 2 3 2 1 1 2 2 1 3 3 3 3 4 2 1 3 3 5 6 5 5 4 4 3 4 4 3 3 3 3 4 4 3 2 3 4 4 4 5 5 4 3 3 4 3 3 3 4 5 6 6 6 6 6 6 6 8 10 11 11 10 9 8 7 6 5 5 5 5 5 5 6 7 8 8 8 7 7 6 5 5 5
2 2 2 2 1 2 3 2 2 2 2 2 2 2 2 1 1 2 2 1 3 4 5 6 6 4 3 2 3 4 4 3 3 4 3 3 3 2 2 3 4 4 4 5 4 4 4 4 4 4 4 5 6 7 7 7 7 7 7 6 6 7 9 11 12 12 11 9 9 8 7 6 6 6 6 6 7 7 8 9 8 8 8 7 6 6 5
2 2 2 2 3 3 3 3 3 3 3 3 2 2 2 2 1 1 1 2 4 5 5 5 5 5 3 2 3 4 4 3 2 2 2 3 3 3 3 3 4 5 4 4 4 5 6 5 4 5 6 7 7 8 8 8 8 8 7 7 7 8 8 9 11 11 11 11 10 9 8 7 7 7 7 6 7 7 8 9 9 9 9 8 7 6 6
2 3 3 3 4 4 3 3 4 3 4 4 4 3 2 2 1 1 1 3 5 6 6 5 4 3 3 3 3 3 3 3 3 4 4 4 4 4 4 5 6 5 4 3 4 6 8 7 6 6 7 7 7 8 9 9 8 8 7 7 7 8 8 9 9 10 12 12 12 11 10 10 9 9 8 7 7 7 8 9 10 10 10 9 8 7 7
3 4 5 5 5 3 3 3 4 3 3 4 3 2 2 3 3 0 1 3 6 6 5 4 4 3 3 3 3 3 3 3 4 5 5 4 4 4 5 6 6 6 7 7 7 8 9 9 8 7 7 8 9 10 12 12 11 10 8 8 8 9 9 9 9 10 12 13 13 12 12 12 11 10 9 8 8 8 8 9 9 10 10 10 9 8 8
4 4 4 4 5 5 5 4 4 4 3 3 3 3 3 4 4 2 2 5 6 6 5 5 4 4 3 3 3 3 3 3 4 5 5 5 4 5 6 7 8 10 11 12 10 9 9 9 8 8 8 10 11 12 12 13 13 12 11 11 11 11 9 9 10 11 11 12 12 13 13 12 12 11 10 10 9 9 9 8 8 9 10 10 10 9 9
Wind_Direction
355 352 350 348 345 343 342 340 341 347 352 1 357 318 300 313 7 42 9 350 277 252 263 244 233 242 252 260 260 264 273 249 250 253 243 235 234 233 239 248 251 253 258 269 269 255 253 248 224 186 163 272 292 185 163 183 197 209 207 158 44 345 225 236 239 237 232 223 232 237 242 256 258 251 246 245 244 239 243 251 256 253 250 252 253 236 147
354 354 352 350 347 344 344 343 342 346 351 357 353 331 319 332 344 30 20 9 307 264 288 282 270 267 262 271 274 267 271 262 252 252 246 242 244 238 240 244 245 250 255 264 267 263 263 256 240 210 171 192 281 270 140 141 152 159 90 98 135 206 229 243 236 232 234 225 216 215 218 231 238 236 239 245 245 245 254 259 251 256 262 259 259 242 119
356 356 355 352 349 347 348 348 345 344 348 353 348 330 315 308 274 295 21 18 360 345 341 319 306 301 286 281 275 261 260 263 265 266 259 262 273 262 257 262 258 260 261 255 258 262 268 266 256 236 177 170 214 227 198 173 146 102 87 92 130 178 18 273 248 241 232 221 223 268 272 254 239 232 237 242 239 244 254 254 242 244 247 250 254 180 112
358 358 357 355 352 352 353 351 352 350 346 350 346 322 311 318 338 342 359 15 12 23 15 346 319 307 301 287 274 264 251 239 248 259 251 254 271 267 267 276 268 259 259 253 253 251 245 248 259 257 212 173 183 198 196 204 174 128 118 117 119 102 57 69 301 287 246 221 332 335 329 300 243 225 231 235 238 248 254 246 246 249 251 256 237 147 133
360 359 360 1 358 359 359 357 1 1 358 357 347 322 317 328 2 351 345 357 354 13 21 5 344 324 312 284 277 274 259 234 212 246 240 240 266 268 268 273 263 254 257 254 252 250 241 237 245 258 256 144 128 167 183 185 145 130 140 156 153 183 198 152 126 122 147 136 309 321 330 328 294 227 236 244 231 235 241 244 257 272 276 281 127 128 132
1 360 4 7 7 8 6 4 6 7 13 7 341 328 338 352 35 21 351 337 357 21 16 5 360 352 337 289 294 298 266 257 49 274 259 240 275 279 265 273 270 255 251 250 247 246 243 240 243 257 260 206 151 174 169 148 147 156 179 186 182 223 213 175 167 180 184 178 219 271 307 331 349 23 36 25 37 162 212 247 301 294 264 157 122 120 119
1 3 9 14 15 17 13 12 13 11 23 25 359 354 13 23 51 45 21 6 26 43 20 12 26 12 358 12 15 360 26 56 40 354 306 307 352 336 277 272 290 268 250 248 244 259 258 242 299 343 294 276 207 184 165 146 165 185 200 188 192 235 207 181 192 204 205 201 200 211 235 276 316 348 12 19 37 68 80 68 60 67 87 106 115 111 106
4 6 14 18 20 23 18 17 19 18 36 46 29 26 29 19 9 4 26 50 41 46 35 28 45 25 2 9 11 5 25 44 48 38 28 36 14 359 347 321 336 6 4 322 61 41 18 22 38 5 334 326 326 220 230 162 175 190 193 170 174 213 180 177 197 211 209 205 203 203 205 215 239 271 321 345 5 66 76 65 67 87 101 107 107 104 105
7 10 19 22 24 25 22 22 23 24 42 47 37 39 32 17 9 345 335 28 17 22 53 46 43 39 24 12 5 5 8 4 22 54 44 35 23 8 358 333 333 51 53 41 44 33 12 11 6 345 335 333 337 353 351 336 201 197 183 139 155 213 190 173 202 223 213 200 203 206 203 208 222 231 237 257 309 26 55 50 43 73 117 129 122 112 119
11 15 21 26 28 27 24 27 28 28 45 50 37 28 12 356 2 336 322 356 359 351 59 65 43 41 44 28 14 5 354 350 356 31 32 25 21 14 3 342 331 62 48 24 13 360 346 347 337 320 318 318 348 41 40 2 312 228 182 143 173 220 214 192 206 223 216 203 202 202 206 215 224 229 222 203 176 103 53 53 42 35 61 141 137 115 123
16 19 23 27 30 32 29 30 32 31 43 53 38 14 5 358 339 317 308 355 33 16 43 57 43 39 59 84 56 18 360 9 19 15 5 11 12 14 15 7 12 52 28 359 346 337 329 321 304 291 283 268 162 104 99 76 13 309 263 166 179 207 233 224 222 232 232 213 201 202 219 225 222 338 316 208 174 174 170 130 90 47 39 75 98 111 129
19 22 27 29 31 37 35 33 37 35 39 53 42 10 12 24 341 324 325 9 53 51 57 61 46 27 17 42 81 60 17 11 19 18 9 359 359 7 15 14 17 21 359 344 333 318 300 274 241 219 216 205 153 121 109 94 80 356 350 318 191 189 208 222 229 245 248 199 188 208 225 214 98 41 12 355 221 165 140 123 124 115 105 107 111 123 133
23 25 29 31 32 40 40 36 39 38 39 54 48 16 17 27 351 341 355 20 43 29 30 69 57 28 12 10 19 93 123 60 354 7 1 353 360 4 3 4 2 350 341 338 328 308 286 240 199 189 188 186 192 200 166 111 62 29 11 350 342 224 225 231 232 246 252 180 191 209 197 112 91 75 68 42 180 153 135 123 124 127 133 130 126 129 126
24 28 30 34 37 42 42 38 40 39 42 55 49 22 19 29 8 358 359 12 59 27 358 38 45 17 17 13 350 325 149 160 188 180 355 350 2 2 352 347 342 332 327 325 311 289 277 252 233 222 202 192 202 207 184 148 71 5 352 341 336 326 310 284 256 247 237 222 212 176 135 143 117 92 76 54 76 108 110 138 125 125 145 137 128 129 129
24 30 32 35 40 45 46 42 41 40 45 56 50 26 27 46 40 14 352 338 65 47 21 23 5 345 359 21 3 352 17 14 288 182 156 72 22 18 357 339 332 326 321 311 289 257 244 257 258 250 231 215 217 226 209 179 153 56 331 324 310 293 287 280 260 245 235 249 250 232 222 218 127 94 66 24 19 14 358 86 126 165 188 147 136 137 136
24 31 35 37 42 49 49 46 45 43 46 58 54 29 30 58 59 29 4 0 33 49 25 16 345 326 345 22 19 9 4 358 344 295 139 59 22 24 16 340 319 310 309 297 271 253 259 234 236 251 249 246 242 248 253 226 168 138 180 221 249 264 251 243 252 251 248 260 263 255 249 279 75 82 63 28 14 357 321 219 159 182 181 151 147 152 149
24 31 37 40 43 50 53 50 49 47 48 60 60 33 28 63 63 36 27 47 65 63 32 17 1 349 5 21 19 9 360 356 352 332 353 29 17 14 10 353 317 266 292 290 262 246 251 235 244 245 225 354 326 245 258 277 256 124 164 189 205 232 241 242 247 252 254 257 264 275 77 65 44 45 39 17 7 331 265 235 164 145 153 149 149 153 148
27 33 40 43 44 50 58 55 52 52 51 60 61 40 33 67 64 34 29 59 73 66 39 26 27 27 21 10 4 7 1 352 349 332 315 23 27 7 358 357 358 335 315 309 291 275 270 252 268 263 202 85 294 259 265 13 321 265 277 266 231 222 241 254 252 255 263 263 263 249 104 69 19 16 13 351 332 251 230 183 121 138 148 145 145 150 149
33 37 43 49 49 50 58 60 59 59 56 62 66 48 36 65 72 50 45 59 73 68 44 32 36 35 29 22 15 16 12 359 354 347 339 39 10 337 319 342 6 354 344 337 337 342 318 258 281 302 252 176 207 287 351 48 280 276 279 273 272 268 262 259 255 261 268 263 260 246 110 37 354 6 18 348 322 210 130 89 112 134 140 138 137 143 152
36 38 46 55 55 53 57 61 64 63 58 67 74 55 35 61 87 79 58 51 74 76 50 36 42 40 38 38 28 22 22 13 5 1 3 14 350 324 286 112 13 357 360 359 9 19 337 313 55 326 294 136 75 311 290 154 273 323 314 275 286 12 301 262 272 315 281 252 256 253 117 23 341 336 32 7 12 117 112 99 105 108 111 117 116 114 131
39 39 45 56 62 59 57 56 62 64 59 71 79 66 32 45 77 91 65 31 49 82 59 42 49 46 44 45 36 30 32 26 14 4 356 1 358 346 357 54 8 359 4 347 355 49 347 333 18 324 298 18 53 265 286 190 169 34 356 305 329 23 312 283 46 17 303 278 293 322 76 50 19 29 69 61 70 93 107 109 112 117 118 114 106 104 114
38 40 41 50 61 64 61 56 55 58 65 76 77 65 35 33 58 80 68 44 57 87 79 58 61 56 51 50 42 37 36 30 23 13 359 356 8 20 40 38 19 18 7 340 331 58 360 336 343 324 318 5 333 290 340 293 232 67 28 335 2 38 13 344 36 45 19 38 73 87 80 72 69 76 94 101 97 98 113 116 105 95 109 119 116 110 107
19 36 35 39 51 60 66 68 61 56 65 77 73 61 41 27 49 61 54 47 74 95 87 69 72 60 49 44 38 40 39 30 29 25 5 353 360 46 51 29 10 13 13 360 352 355 358 1 350 337 355 5 338 311 277 270 283 12 45 46 50 55 37 343 35 110 94 74 83 98 92 84 81 81 92 102 98 94 110 112 85 57 62 92 110 109 95
309 358 18 20 26 36 53 66 70 70 68 71 91 79 46 8 25 45 28 360 119 103 79 69 57 45 40 37 32 36 36 27 25 25 14 5 8 45 55 23 357 359 23 12 349 326 327 340 320 315 17 12 342 319 294 305 16 338 291 145 84 56 12 346 143 154 143 107 102 110 111 109 105 97 96 98 91 82 88 97 91 74 71 80 88 92 80
276 287 316 345 354 354 26 53 60 72 74 70 85 75 37 357 23 64 15 330 295 291 77 80 65 43 33 37 33 29 24 22 24 24 25 25 23 27 35 21 4 6 10 354 330 311 307 306 290 285 68 29 341 339 360 15 26 347 313 315 66 28 342 326 109 123 116 115 120 125 122 118 118 114 111 111 105 93 89 93 98 100 98 94 91 86 73
276 274 274 282 312 320 322 42 64 78 81 84 87 70 35 354 171 98 2 327 311 294 201 95 79 72 53 42 35 25 16 16 22 23 24 31 34 31 26 11 359 359 348 340 339 331 328 349 348 340 35 33 347 337 1 357 305 323 348 12 10 325 291 295 44 111 114 120 133 138 132 127 125 115 109 112 112 107 105 105 105 104 102 99 92 78 67
279 271 267 270 273 275 285 263 164 109 90 91 97 79 48 14 50 114 176 252 312 304 209 111 100 107 90 58 36 23 18 14 18 26 29 30 32 33 24 14 14 13 354 344 347 320 305 24 37 1 9 16 344 318 343 348 307 286 340 38 334 293 309 336 255 191 145 134 149 150 137 136 137 126 114 112 112 112 114 111 106 100 92 81 73 68 63
288 274 264 266 265 262 267 249 207 137 109 102 94 82 56 30 34 97 182 188 290 323 343 77 112 137 119 68 34 23 28 25 20 24 31 32 30 32 31 25 25 27 14 5 19 6 347 13 27 18 15 360 329 296 28 345 282 267 18 40 13 353 359 3 340 4 62 114 148 152 34 107 134 134 128 120 113 115 118 111 99 87 67 46 42 45 47
296 284 268 259 257 258 258 229 182 137 127 105 85 69 26 10 9 356 199 185 236 314 329 73 136 149 94 59 37 25 31 33 29 26 29 31 27 25 30 30 26 27 25 11 8 32 53 46 25 15 13 344 322 315 159 251 238 117 60 26 9 13 19 17 6 21 81 113 129 90 59 114 130 132 130 124 118 115 109 105 97 72 47 35 38 40 37
300 295 284 264 251 246 244 208 168 156 130 95 75 267 248 280 338 338 266 183 179 284 298 280 165 104 87 72 26 20 23 19 24 31 28 28 28 23 19 22 20 9 1 20 25 14 43 77 57 38 32 338 310 300 284 271 261 87 68 15 346 7 27 28 18 38 99 107 94 74 89 110 124 130 128 118 102 93 92 101 111 75 34 39 48 40 29
309 304 297 280 254 234 225 191 167 153 107 66 347 280 254 241 305 321 286 182 169 235 290 292 9 115 126 137 315 349 10 12 29 54 26 354 20 29 12 1 11 7 357 22 44 22 7 47 46 40 85 46 309 297 292 281 268 96 87 77 74 60 57 63 59 80 108 113 110 99 99 106 128 139 132 122 107 96 87 101 147 239 339 13 45 29 18
310 310 310 303 255 219 209 177 165 162 124 29 283 276 298 280 278 287 244 168 160 254 287 290 270 167 162 136 124 359 339 339 321 147 61 11 2 13 16 6 19 34 17 356 2 42 35 24 341 347 62 51 308 289 282 279 314 95 109 138 133 120 108 107 113 122 131 141 156 140 123 154 270 59 97 121 134 113 99 112 146 121 14 45 90 40 15
312 310 308 312 233 184 184 170 157 151 137 150 214 236 259 282 286 225 179 154 151 281 289 291 248 219 109 119 131 172 283 291 293 318 65 43 354 315 338 32 23 38 4 333 336 49 51 281 250 125 83 61 280 289 300 325 56 102 169 181 165 158 152 144 149 151 148 166 223 276 270 196 154 51 103 146 162 138 59 287 270 96 100 136 218 308 340
316 310 312 341 119 159 168 154 126 109 94 90 303 273 265 360 44 119 154 125 343 260 258 275 257 202 117 158 152 105 330 318 330 355 43 51 9 325 330 41 176 175 360 338 320 253 189 279 311 353 107 150 278 301 301 303 113 166 206 192 178 185 186 188 203 196 177 177 202 270 337 135 163 189 187 184 196 222 268 281 281 248 230 236 248 300 309
316 321 335 75 120 140 144 131 117 100 66 296 261 268 272 345 32 144 144 121 270 240 193 242 248 225 192 212 164 94 1 325 3 20 15 29 30 2 339 296 228 106 36 327 290 267 148 48 338 300 154 114 104 268 262 244 176 199 219 208 198 205 208 210 217 209 190 199 221 222 205 203 212 224 224 224 235 248 257 264 263 245 245 256 272 285 291
35 47 100 106 104 104 105 110 123 149 204 209 237 273 301 42 63 116 123 118 268 273 221 232 236 239 322 299 101 93 292 286 26 41 351 320 357 23 341 300 296 51 9 273 265 299 53 65 316 275 238 104 259 253 283 334 270 211 229 233 218 218 223 225 224 212 198 203 222 229 231 238 246 253 252 249 251 251 251 251 245 238 253 270 278 281 285
94 106 107 99 91 89 96 121 197 220 217 212 221 7 66 79 86 93 94 96 270 293 289 271 268 24 355 21 80 84 270 297 6 341 336 339 339 3 330 306 340 31 300 247 224 14 11 23 286 279 279 287 284 284 304 286 269 251 253 249 228 222 226 221 212 206 204 208 214 220 237 251 257 261 263 262 257 248 244 243 237 236 251 266 273 278 282
99 99 98 97 104 146 141 174 215 215 198 164 129 93 80 88 105 106 99 115 164 186 270 281 349 63 290 279 73 33 324 331 324 304 9 4 328 313 322 321 2 360 291 265 88 32 305 254 241 268 278 275 274 276 270 265 266 262 257 254 246 237 230 218 205 206 214 225 233 234 246 260 266 266 266 266 256 241 236 239 238 240 249 259 266 274 279
80 84 106 158 192 172 142 192 184 157 125 113 112 106 125 189 183 135 139 176 178 163 239 296 27 42 313 302 94 72 352 320 302 304 27 33 333 332 332 330 25 337 294 284 98 80 280 267 257 278 285 264 225 201 251 270 266 258 253 253 250 243 235 226 220 220 228 246 263 266 266 275 281 278 272 268 254 233 227 232 234 236 243 252 256 266 278
63 85 168 154 106 151 203 166 130 111 100 118 180 229 235 218 218 191 190 188 172 128 11 348 56 45 335 316 352 77 21 326 311 324 344 6 28 343 313 313 11 334 291 281 96 69 291 294 288 279 284 305 114 112 315 284 273 264 260 256 249 244 240 234 228 226 233 246 258 265 275 282 288 283 272 260 241 222 219 224 228 228 232 244 258 272 281
111 147 149 119 117 135 138 130 119 112 122 187 157 59 315 71 101 199 218 193 143 126 44 319 250 131 29 322 308 343 42 15 325 312 306 315 45 323 292 303 358 310 282 303 62 327 280 284 284 282 294 338 49 13 297 291 282 273 267 260 250 242 236 229 222 220 224 229 234 249 271 276 278 276 262 241 224 213 210 213 219 223 230 243 262 279 283
125 126 126 122 121 121 120 126 143 154 187 231 130 73 355 158 156 189 255 17 79 133 137 336 297 308 25 331 305 310 20 17 322 286 274 312 33 307 287 300 315 277 284 343 356 296 276 274 274 279 318 21 352 307 296 292 290 288 282 271 255 234 219 212 211 213 215 221 235 258 273 274 272 265 242 221 214 204 199 203 211 221 232 244 262 281 283
121 123 122 119 121 136 153 162 170 170 200 212 142 110 148 193 195 184 106 99 114 168 127 90 285 278 270 282 285 282 295 342 307 280 272 301 331 282 280 290 275 272 302 328 300 274 267 267 268 275 18 47 345 309 304 297 290 286 276 262 245 219 207 206 209 208 207 214 234 252 263 268 259 237 216 210 203 194 193 200 207 215 229 244 262 278 277
113 121 121 118 158 204 202 149 173 196 189 171 176 166 159 172 186 156 131 141 162 180 103 355 308 295 273 298 302 286 246 184 270 280 283 297 296 273 270 270 270 286 302 297 275 267 271 274 276 289 311 316 299 305 316 312 300 288 270 248 230 223 220 217 213 212 218 224 225 225 231 239 224 207 203 200 197 197 201 205 208 216 229 245 261 274 271
137 172 169 165 195 232 235 180 201 207 174 183 212 194 134 134 139 107 105 116 244 337 26 334 320 311 303 304 305 287 270 262 246 244 260 282 279 269 267 272 285 294 287 274 269 273 274 274 283 303 304 297 291 297 305 309 310 304 286 259 236 229 228 225 221 224 232 234 227 223 223 221 215 213 210 204 203 204 207 210 213 220 232 246 261 269 266
249 230 208 210 254 250 222 196 200 197 177 187 235 18 66 77 73 78 88 98 299 326 327 319 315 308 300 293 257 225 262 288 283 252 246 265 266 270 287 291 286 278 268 268 272 273 272 285 323 340 319 321 326 304 295 298 303 305 302 284 255 237 231 229 229 232 235 234 232 234 236 234 233 229 220 215 215 214 213 216 222 225 233 246 257 262 259
256 257 249 243 213 213 214 207 188 168 160 155 82 54 68 83 84 83 87 300 316 334 323 312 307 294 288 297 289 259 252 269 279 270 262 264 263 267 283 280 271 259 257 262 267 269 282 319 348 341 318 313 307 297 296 301 301 301 307 306 281 251 235 230 230 232 235 237 240 245 247 246 245 243 238 236 235 230 224 225 227 228 235 246 252 253 256
255 253 251 239 201 211 212 191 166 151 129 121 120 112 111 133 143 117 104 332 318 318 313 314 314 298 263 247 278 279 267 264 271 265 254 257 268 266 252 253 257 259 263 266 271 281 301 331 351 340 318 307 300 297 303 310 309 306 307 305 289 263 242 230 227 228 231 234 239 244 248 249 249 250 251 252 252 247 239 234 231 230 234 241 244 245 251
247 245 252 249 243 237 221 206 205 187 149 140 175 189 188 219 227 110 66 323 309 313 313 313 315 310 285 243 254 272 268 256 255 252 237 238 251 254 252 260 267 268 271 277 288 298 309 325 339 326 311 305 304 306 310 312 310 307 304 298 294 288 269 246 233 229 231 233 236 241 245 248 250 251 251 253 256 256 250 242 236 232 232 236 241 243 246
242 241 237 237 239 228 203 214 239 216 169 174 212 226 226 251 267 73 18 295 299 309 304 279 253 260 282 280 274 275 269 253 249 255 256 253 253 252 256 262 268 277 291 302 302 302 305 311 312 304 298 296 298 305 310 309 303 297 291 287 291 294 288 272 255 243 239 239 241 242 244 248 251 251 248 249 257 262 257 247 240 236 234 234 238 240 240
226 238 238 238 247 240 205 211 251 253 200 202 224 231 254 274 277 78 37 304 294 291 287 270 243 242 261 265 257 269 288 289 273 263 262 265 265 259 257 260 271 288 301 306 304 300 301 304 306 302 296 290 292 298 301 297 289 281 276 272 273 274 274 272 266 257 250 247 246 245 245 249 253 253 250 248 250 255 254 249 244 240 237 236 236 239 241
219 235 237 231 238 245 235 236 259 267 243 236 251 261 270 275 276 287 314 299 284 276 280 283 272 259 261 267 274 282 288 286 275 270 274 279 276 271 274 282 291 299 305 309 308 303 301 306 310 304 291 285 289 294 296 293 290 287 280 272 269 268 267 267 269 268 261 253 248 245 243 246 252 254 251 247 244 245 249 251 247 242 239 239 238 238 239